This demonstration page uses our WeatherBlox Daily Observations layout. Learn more.

Left ArrowRight Arrow

41.86663, -103.66717

Hourly Observations for August 6, 2018

Temp ( °F °C ) Dew Point ( °F °C ) Humidity (%) Winds ( mph kmh ) Pressure ( in mb ) Visibility ( mi km ) Precip ( " mm )
12:53 am 00:53 Partly Cloudy 61 16.1 59 15 93 93 SSE 6 9 30.01 1016 10 16 0.00 0.00
1:53 am 01:53 Mostly Cloudy 60 15.6 59 15 96 96 Calm 30.04 1017 10 16 0.00 0.00
2:08 am 02:08 Partly Cloudy 61 16 59 15 94 94 Calm 30.00 1016 10 16 0.00 0.00
2:38 am 02:38 Mostly Cloudy 59 15 59 15 100 100 N 5 7 30.00 1016 10 16 0.00 0.00
2:53 am 02:53 Cloudy 60 15.6 60 15.6 100 100 N 5 7 30.05 1018 10 16 0.00 0.00
3:23 am 03:23 Cloudy 60 15.6 60 15.6 100 100 NNW 6 9 30.00 1016 10 16 0.00 0.00
3:44 am 03:44 Cloudy 61 16 61 16 100 100 W 5 7 30.00 1016 9 14 0.00 0.00
3:53 am 03:53 Cloudy 60 15.6 60 15.6 100 100 NW 6 9 30.04 1017 9 14 0.00 0.00
4:53 am 04:53 Cloudy 60 15.6 60 15.6 100 100 NNW 8 13 30.06 1018 10 16 0.00 0.00
5:51 am 05:51 Cloudy 61 16 61 16 100 100 NNW 6 9 30.03 1017 10 16 0.00 0.00
5:53 am 05:53 Cloudy 60 15.6 60 15.6 100 100 NNW 6 9 30.07 1018 10 16 0.00 0.00
6:53 am 06:53 Sunny with Mist and Fog 59 15 59 15 100 100 NW 3 6 30.08 1019 5 8 0.00 0.00
7:51 am 07:51 Mostly Cloudy 63 17 61 16 94 94 Calm 30.03 1017 10 16 0.00 0.00
7:53 am 07:53 Mostly Cloudy 63 17.2 61 16.1 93 93 N 3 6 30.09 1019 10 16 0.00 0.00
8:06 am 08:06 Cloudy 63 17.2 62 16.7 97 97 NNW 3 6 30.06 1018 10 16 0.00 0.00
8:53 am 08:53 Cloudy 63 17.2 62 16.7 97 97 NE 8 13 30.11 1020 10 16 0.00 0.00
9:14 am 09:14 Cloudy 64 18 63 17 94 94 NE 6 9 30.03 1017 10 16 0.00 0.00
9:38 am 09:38 Mostly Cloudy 66 19 63 17 88 88 Calm 30.03 1017 10 16 0.00 0.00
9:53 am 09:53 Cloudy 68 20 62 16.7 81 81 NNW 5 7 30.10 1019 10 16 0.00 0.00
10:53 am 10:53 Mostly Cloudy 70 21.1 63 17.2 79 79 SSE 5 7 30.10 1019 10 16 0.00 0.00
11:53 am 11:53 Cloudy 71 21.7 64 17.8 79 79 S 6 9 30.11 1020 10 16 0.00 0.00
12:53 pm 12:53 Mostly Cloudy 73 22.8 64 17.8 74 74 SW 7 11 30.09 1019 10 16 0.00 0.00
1:43 pm 13:43 Partly Cloudy 75 23.9 64 17.8 69 69 Calm 29.91 1013 10 16 0.00 0.00
1:53 pm 13:53 Mostly Cloudy 76 24.4 63 17.2 64 64 VRB 3 6 30.07 1018 10 16 0.00 0.00
2:05 pm 14:05 Mostly Cloudy 76 24.4 64 17.8 67 67 SE 8 13 29.91 1013 10 16 0.00 0.00
2:53 pm 14:53 Partly Cloudy 76 24.4 63 17.2 64 64 VRB 6 9 30.05 1018 10 16 0.00 0.00
3:53 pm 15:53 Sunny 78 25.6 62 16.7 58 58 Calm 30.02 1017 10 16 0.00 0.00
4:53 pm 16:53 Mostly Sunny 70 21.1 60 15.6 71 71 NE 17 28 30.06 1018 10 16 0.00 0.00
5:53 pm 17:53 Sunny 76 24.4 60 15.6 58 58 E 12 19 30.04 1017 10 16 0.00 0.00
6:53 pm 18:53 Sunny 74 23.3 63 17.2 69 69 ESE 9 15 30.04 1017 10 16 0.00 0.00
7:53 pm 19:53 Sunny 69 20.6 63 17.2 81 81 ESE 8 13 30.06 1018 10 16 0.00 0.00
8:53 pm 20:53 Clear 67 19.4 62 16.7 84 84 ESE 9 15 30.09 1019 10 16 0.00 0.00
9:53 pm 21:53 Clear 62 16.7 61 16.1 96 96 E 6 9 30.10 1019 10 16 0.00 0.00
10:53 pm 22:53 Clear 62 16.7 61 16.1 96 96 E 5 7 30.10 1019 10 16 0.00 0.00
11:53 pm 23:53 Clear 60 15.6 60 15.6 100 100 E 3 6 30.09 1019 10 16 0.00 0.00

Powered by AerisWeather